Location: Pianadetto
(44.4000°N, 10.1000°E)
Time: 21:39:05
(UTC+00:00)

Okean 1-7 Rocket - Pass Details

Date: 26 May 2022
Orbit: 616 x 648 km, 82.5° (Epoch: 03 July)

Event Time Altitude Azimuth Distance (km) Brightness Sun altitude
Rises 02:48:24 0° 175° (S) 2,901 6.7 -8.6°
Reaches altitude 10° 02:50:40 10° 170° (S) 1,994 5.9 -8.3°
Maximum altitude 02:54:58 53° 94° (E) 767 4.4 -7.7°
Drops below altitude 10° 02:59:15 10° 18° (NNE) 1,995 7.2 -7.1°
Sets 03:01:31 0° 14° (NNE) 2,903 7.9 -6.8°
